星链-1850 (STARLINK-1850 )

导读 | 豆包AI

STARLINK-1850是美国太空探索技术公司SpaceX星链星座的卫星,于2020年11月25日发射,属于星链项目的组网卫星,承担低轨卫星互联网服务功能。它运行在近地轨道,为全球提供宽带互联网接入服务,是星链星座大规模组网建设阶段的重要组成部分。

Basic Information
目录编号:
47138
目录名称:
STARLINK-1850
国际标识:
2020-088S
轨道中心:
EARTH
卫星名称:
星链-1850
卫星全名:
星链-1850 (STARLINK-1850 )
卫星状态:
已陨落 最后检测时间 2025-03-19
发射日期:
2020-11-25 UTC
国别 :
美国 (US)
星等 :
--
Orbit Information
数据来源 国际轨道数据
星历时间: 2025-03-19T07:09:00+0800
轨道信息已过期409天
半长轴: 6535.598km
偏心率: 0.0004138
轨道倾角: 53.023°
近地点辐角 234.444°
升交点赤经 47.123°
平近点角 232.259°
近地点: 154.758km
远地点: 160.168km
周期: 87.637分钟
每日圈数: 16.43141
Detailed Information
固有亮度:
5
最大亮度:
2.5
卫星平台:
Starlink V1.0
覆盖范围:
全球
运营商:
太空探索技术公司
运营商所在国:
美国
制造商(研发单位):
太空探索技术公司
制造商所在国:
美国
使用方式:
暂无
Satellite Introduction
星链(Starlink)计划是由太空探索技术公司(SpaceX)提出的一个巨型低轨卫星互联网星座项目,计划在2019年至2024年间在太空搭建由约1.2万颗卫星组成的“星链”网络,其中1584颗将部署在地球上空550千米处的近地轨道,并从2020年开始工作。该卫星仍在工作。